GW2481 Weather Reports


time (UTC)temp
F
wind
direction
speed
knots
gust
knots
rain 1hr
in
rain 24hr
in
rain mn
in
humidity
%
barometer
mb
20260506025504 66 330 5.2 13.9 0.00 0.00 0.00 55 1013.8
20260506025004 66 329 5.2 10.4 0.00 0.00 0.00 55 1013.8
20260506024005 68 316 5.2 2.6 0.00 0.00 0.00 52 1013.6
20260506023504 68 316 5.2 2.6 0.00 0.00 0.00 52 1013.6
20260506022504 68 345 5.2 13.0 0.00 0.00 0.00 51 1013.5
20260506022004 68 334 5.2 12.2 0.00 0.00 0.00 51 1013.5
20260506021504 69 330 7.0 11.3 0.00 0.00 0.00 51 1013.4
20260506020506 69 300 6.1 14.8 0.00 0.00 0.00 50 1013.4
20260506020004 70 335 6.1 12.2 0.00 0.00 0.00 49 1013.3
20260506015505 70 331 7.0 13.0 0.00 0.00 0.00 47 1013.3
20260506014505 70 322 7.0 12.2 0.00 0.00 0.00 46 1013.2
20260506014006 71 355 7.0 13.0 0.00 0.00 0.00 46 1013.2
20260506013504 71 340 7.0 13.0 0.00 0.00 0.00 46 1013.2
20260506013003 71 316 7.0 12.2 0.00 0.00 0.00 46 1013.1
20260506012504 71 331 6.1 14.8 0.00 0.00 0.00 46 1013.1
20260506012005 72 335 6.1 13.9 0.00 0.00 0.00 46 1013.1
20260506011004 72 324 7.0 15.6 0.00 0.00 0.00 46 1013.0
20260506010505 72 297 6.1 13.9 0.00 0.00 0.00 45 1013.0
20260506010004 72 327 6.1 13.0 0.00 0.00 0.00 46 1013.0
20260506005504 72 337 5.2 14.8 0.00 0.00 0.00 47 1013.0
20260506004504 72 335 7.0 8.7 0.00 0.00 0.00 47 1013.0
20260506004005 72 334 7.0 15.6 0.00 0.00 0.00 47 1013.0
20260506003504 72 336 7.0 15.6 0.00 0.00 0.00 46 1013.0
20260506003005 72 313 7.0 12.2 0.00 0.00 0.00 45 1012.9
20260506002503 74 319 6.1 6.1 0.00 0.00 0.00 42 1012.9
20260506002005 74 319 6.1 6.1 0.00 0.00 0.00 42 1012.9
20260506001504 74 319 6.1 11.3 0.00 0.00 0.00 42 1012.9
20260506000004 75 337 5.2 4.3 0.00 0.00 0.00 39 1012.7
20260505235505 75 337 5.2 4.3 0.00 0.00 0.00 39 1012.7
20260505235004 75 337 5.2 8.7 0.00 0.00 0.00 39 1012.7
20260505234504 75 346 5.2 10.4 0.00 0.00 0.00 37 1012.7
20260505234004 75 344 5.2 10.4 0.00 0.00 0.00 38 1012.7
20260505233504 76 335 4.3 13.9 0.00 0.00 0.00 37 1012.7
20260505233005 76 306 4.3 8.7 0.00 0.00 0.00 38 1012.6
20260505232504 76 317 5.2 10.4 0.00 0.00 0.00 37 1012.6
20260505232005 76 321 5.2 11.3 0.00 0.00 0.00 37 1012.6
20260505231504 76 337 4.3 13.0 0.00 0.00 0.00 37 1012.7
20260505230504 76 336 6.1 8.7 0.00 0.00 0.00 37 1012.7
20260505230004 76 350 6.1 8.7 0.00 0.00 0.00 37 1012.8
20260505225505 75 307 5.2 11.3 0.00 0.00 0.00 37 1012.8
20260505225004 76 339 3.5 11.3 0.00 0.00 0.00 36 1012.8
20260505224505 76 0 1.7 1.7 0.00 0.00 0.00 37 1012.8
20260505224004 76 41 5.2 1.7 0.00 0.00 0.00 37 1012.8
20260505223506 76 41 5.2 1.7 0.00 0.00 0.00 37 1012.8
20260505222504 76 283 4.3 13.0 0.00 0.00 0.00 37 1012.7
20260505222004 76 343 4.3 8.7 0.00 0.00 0.00 36 1012.7
20260505221504 75 337 4.3 2.6 0.00 0.00 0.00 40 1012.9
20260505221005 75 337 4.3 2.6 0.00 0.00 0.00 40 1012.9
20260505220503 75 337 4.3 7.8 0.00 0.00 0.00 40 1012.9
20260505220005 74 336 3.5 10.4 0.00 0.00 0.00 40 1012.9
20260505215504 74 270 4.3 5.2 0.00 0.00 0.00 38 1012.9
20260505215005 74 270 4.3 5.2 0.00 0.00 0.00 38 1012.9
20260505214504 74 270 4.3 5.2 0.00 0.00 0.00 38 1013.0
20260505213503 75 338 4.3 10.4 0.00 0.00 0.00 38 1013.0
20260505213004 75 292 4.3 8.7 0.00 0.00 0.00 39 1013.1
20260505212506 74 316 2.6 7.8 0.00 0.00 0.00 40 1013.1
20260505212004 73 311 2.6 11.3 0.00 0.00 0.00 41 1013.1
20260505211504 73 322 2.6 7.0 0.00 0.00 0.00 39 1013.2
20260505211004 74 28 5.2 6.1 0.00 0.00 0.00 40 1013.2
20260505210504 74 28 5.2 6.1 0.00 0.00 0.00 40 1013.2
20260505210006 74 28 5.2 8.7 0.00 0.00 0.00 40 1013.3
20260505205503 74 345 2.6 12.2 0.00 0.00 0.00 38 1013.3
20260505205004 73 0 0.0 1.7 0.00 0.00 0.00 39 1013.3
20260505204505 73 243 5.2 1.7 0.00 0.00 0.00 39 1013.3
20260505203507 73 243 5.2 7.0 0.00 0.00 0.00 39 1013.3
20260505203003 72 311 5.2 10.4 0.00 0.00 0.00 41 1013.4
20260505202504 72 309 4.3 11.3 0.00 0.00 0.00 40 1013.4
20260505202003 72 337 4.3 10.4 0.00 0.00 0.00 40 1013.4
20260505201504 72 271 6.1 10.4 0.00 0.00 0.00 40 1013.5
20260505201005 72 301 6.1 13.0 0.00 0.00 0.00 40 1013.5
20260505195503 71 308 5.2 10.4 0.00 0.00 0.00 41 1013.4
20260505194505 71 355 3.5 6.1 0.00 0.00 0.00 40 1013.4
20260505194003 71 354 4.3 6.1 0.00 0.00 0.00 40 1013.4
20260505193505 71 354 4.3 6.1 0.00 0.00 0.00 40 1013.4
20260505193004 71 347 4.3 7.8 0.00 0.00 0.00 40 1013.3
20260505192505 71 0 5.2 10.4 0.00 0.00 0.00 39 1013.3
20260505192003 71 14 2.6 6.1 0.00 0.00 0.00 41 1013.3
20260505191504 71 35 4.3 2.6 0.00 0.00 0.00 39 1013.4
20260505191003 71 35 4.3 2.6 0.00 0.00 0.00 39 1013.4
20260505190504 71 35 4.3 8.7 0.00 0.00 0.00 39 1013.4
20260505185504 71 200 4.3 8.7 0.00 0.00 0.00 39 1013.4
20260505185005 71 335 4.3 7.0 0.00 0.00 0.00 40 1013.4
20260505184504 72 285 4.3 7.8 0.00 0.00 0.00 39 1013.4
20260505184004 71 283 2.6 6.1 0.00 0.00 0.00 42 1013.4
20260505183505 70 43 2.6 4.3 0.00 0.00 0.00 42 1013.4
20260505182505 70 43 2.6 8.7 0.00 0.00 0.00 42 1013.5
20260505182004 70 344 2.6 7.0 0.00 0.00 0.00 42 1013.5
20260505181504 69 302 1.7 7.0 0.00 0.00 0.00 42 1013.6
20260505180504 69 310 2.6 4.3 0.00 0.00 0.00 41 1013.6
20260505180004 68 291 2.6 5.2 0.00 0.00 0.00 42 1013.6
20260505175503 67 266 4.3 6.1 0.00 0.00 0.00 42 1013.6
20260505175003 67 275 4.3 5.2 0.00 0.00 0.00 44 1013.6
20260505174503 67 352 2.6 8.7 0.00 0.00 0.00 42 1013.6
20260505174006 67 274 2.6 6.1 0.00 0.00 0.00 45 1013.6
20260505172505 66 317 1.7 5.2 0.00 0.00 0.00 43 1013.6
20260505172004 65 347 1.7 4.3 0.00 0.00 0.00 44 1013.6
20260505171003 64 325 4.3 4.3 0.00 0.00 0.00 45 1013.6
20260505170504 64 325 4.3 7.8 0.00 0.00 0.00 45 1013.6
20260505170005 64 339 4.3 5.2 0.00 0.00 0.00 46 1013.7
20260505165004 64 335 2.6 7.0 0.00 0.00 0.00 46 1013.7
20260505164504 63 298 1.7 5.2 0.00 0.00 0.00 49 1013.6
20260505164004 63 298 1.7 5.2 0.00 0.00 0.00 49 1013.6
20260505163506 63 298 1.7 5.2 0.00 0.00 0.00 49 1013.6
20260505162504 62 303 1.7 6.1 0.00 0.00 0.00 51 1013.6
20260505162004 62 310 1.7 5.2 0.00 0.00 0.00 54 1013.6
20260505161004 60 340 0.9 2.6 0.00 0.00 0.00 57 1013.7
20260505160507 60 336 1.7 1.7 0.00 0.00 0.00 57 1013.7
20260505153005 57 267 1.7 4.3 0.00 0.00 0.00 62 1013.6
20260505152504 56 217 1.7 4.3 0.00 0.00 0.00 66 1013.6
20260505152004 56 134 1.7 4.3 0.00 0.00 0.00 67 1013.6
20260505151504 55 152 1.7 4.3 0.00 0.00 0.00 68 1013.5
20260505151004 54 137 1.7 2.6 0.00 0.00 0.00 71 1013.5
20260505125004 48 109 1.7 2.6 0.00 0.00 0.00 67 1012.5
20260505124006 50 339 1.7 5.2 0.00 0.00 0.00 65 1012.4
20260505123504 52 321 1.7 1.7 0.00 0.00 0.00 61 1012.4
20260505123003 52 321 1.7 1.7 0.00 0.00 0.00 61 1012.2
20260505122504 52 321 1.7 4.3 0.00 0.00 0.00 61 1012.2
20260505122004 52 338 1.7 4.3 0.00 0.00 0.00 61 1012.2
20260505121503 52 324 1.7 5.2 0.00 0.00 0.00 62 1012.2
20260505121005 52 324 1.7 2.6 0.00 0.00 0.00 62 1012.2
20260505120504 52 299 2.6 6.1 0.00 0.00 0.00 63 1012.2
20260505115503 52 333 1.7 4.3 0.00 0.00 0.00 63 1012.0
20260505115004 52 333 1.7 4.3 0.00 0.00 0.00 63 1012.0
20260505114504 52 333 1.7 4.3 0.00 0.00 0.00 63 1012.0
20260505114004 52 303 1.7 5.2 0.00 0.00 0.00 63 1012.0
20260505113504 52 346 1.7 4.3 0.00 0.00 0.00 62 1012.0
20260505113006 53 316 1.7 4.3 0.00 0.00 0.00 62 1011.9
20260505112504 53 313 1.7 4.3 0.00 0.00 0.00 62 1011.9
20260505112004 53 0 1.7 2.6 0.00 0.00 0.00 62 1011.9
20260505111004 54 0 0.9 2.6 0.00 0.00 0.00 61 1011.7
20260505110504 54 356 1.7 2.6 0.00 0.00 0.00 61 1011.7
20260505102004 55 331 1.7 7.8 0.00 0.00 0.00 56 1011.8
20260505101505 55 335 1.7 5.2 0.00 0.00 0.00 54 1011.8
20260505101004 55 0 0.0 2.6 0.00 0.00 0.00 53 1011.8
20260505100504 55 321 1.7 2.6 0.00 0.00 0.00 53 1011.8
20260505100003 55 321 1.7 2.6 0.00 0.00 0.00 53 1011.8
20260505095505 55 321 1.7 6.1 0.00 0.00 0.00 53 1011.8
20260505095004 55 335 1.7 6.1 0.00 0.00 0.00 51 1011.8
20260505094505 55 132 1.7 4.3 0.00 0.00 0.00 52 1011.8
20260505094004 55 335 1.7 4.3 0.00 0.00 0.00 54 1011.8
20260505093504 55 318 1.7 4.3 0.00 0.00 0.00 55 1011.8
20260505093004 55 245 1.7 6.1 0.00 0.00 0.00 53 1011.7
20260505092504 55 283 1.7 7.0 0.00 0.00 0.00 57 1011.7
20260505092005 55 278 1.7 1.7 0.00 0.00 0.00 60 1011.7
20260505091504 55 265 1.7 6.1 0.00 0.00 0.00 58 1011.7
20260505091004 55 216 1.7 4.3 0.00 0.00 0.00 57 1011.7
20260505090506 55 262 1.7 5.2 0.00 0.00 0.00 61 1011.7
20260505090004 55 237 1.7 2.6 0.00 0.00 0.00 62 1011.8
20260505085504 55 211 1.7 4.3 0.00 0.00 0.00 62 1011.8
20260505085004 55 251 1.7 5.2 0.00 0.00 0.00 62 1011.8
20260505084504 55 242 1.7 4.3 0.00 0.00 0.00 63 1011.8
20260505084005 55 223 1.7 5.2 0.00 0.00 0.00 63 1011.8
20260505083504 55 211 1.7 1.7 0.00 0.00 0.00 62 1011.8
20260505082003 56 211 1.7 5.2 0.00 0.00 0.00 62 1011.8
20260505081504 57 318 1.7 4.3 0.00 0.00 0.00 61 1011.7
20260505081004 57 242 1.7 6.1 0.00 0.00 0.00 61 1011.7
20260505080504 57 26 1.7 4.3 0.00 0.00 0.00 59 1011.7
20260505080006 57 223 1.7 4.3 0.00 0.00 0.00 56 1011.7
20260505075504 58 271 2.6 5.2 0.00 0.00 0.00 49 1011.7
20260505075004 58 245 2.6 5.2 0.00 0.00 0.00 50 1011.7
20260505074504 58 163 4.3 6.1 0.00 0.00 0.00 50 1011.6
20260505074003 59 356 4.3 2.6 0.00 0.00 0.00 49 1011.6
20260505073504 59 356 4.3 2.6 0.00 0.00 0.00 49 1011.6
20260505073006 59 356 4.3 2.6 0.00 0.00 0.00 49 1011.5
20260505072504 59 355 4.3 13.9 0.00 0.00 0.00 49 1011.5
20260505071503 59 343 5.2 7.0 0.00 0.00 0.00 50 1011.5
20260505071004 59 349 5.2 14.8 0.00 0.00 0.00 49 1011.5
20260505070004 59 310 6.1 7.8 0.00 0.00 0.00 50 1011.4
20260505065503 59 341 5.2 11.3 0.00 0.00 0.00 50 1011.4
20260505065006 59 342 5.2 11.3 0.00 0.00 0.00 51 1011.4
20260505064504 58 326 2.6 12.2 0.00 0.00 0.00 53 1011.5
20260505064004 58 317 2.6 7.0 0.00 0.00 0.00 55 1011.5
20260505063004 58 323 1.7 7.0 0.00 0.00 0.00 57 1011.3
20260505062505 58 307 1.7 7.0 0.00 0.00 0.00 57 1011.3
20260505062003 58 323 1.7 6.1 0.00 0.00 0.00 60 1011.3
20260505061506 58 359 1.7 7.0 0.00 0.00 0.00 59 1011.2
20260505061004 58 317 1.7 4.3 0.00 0.00 0.00 60 1011.2
20260505060506 58 352 1.7 7.0 0.00 0.00 0.00 62 1011.2
20260505060004 58 357 1.7 4.3 0.00 0.00 0.00 63 1011.2
20260505055505 58 321 0.9 1.7 0.00 0.00 0.00 62 1011.2
20260505055004 59 321 0.9 4.3 0.00 0.00 0.00 61 1011.2
20260505054505 59 356 1.7 1.7 0.00 0.00 0.00 61 1011.0
20260505054004 59 357 1.7 1.7 0.00 0.00 0.00 60 1011.0
20260505053505 59 349 0.9 1.7 0.00 0.00 0.00 60 1011.0
20260505053004 59 329 1.7 1.7 0.00 0.00 0.00 62 1011.1
20260505052505 59 329 1.7 1.7 0.00 0.00 0.00 62 1011.1
20260505052004 59 329 1.7 6.1 0.00 0.00 0.00 62 1011.1
20260505051504 59 312 1.7 7.8 0.00 0.00 0.00 63 1010.9
20260505051006 60 5 0.9 0.0 0.00 0.00 0.00 66 1010.9
20260505050504 60 15 0.9 0.0 0.00 0.00 0.00 66 1010.9
20260505041505 61 316 5.2 7.0 0.00 0.00 0.00 64 1010.1
20260505041004 61 336 5.2 10.4 0.00 0.00 0.00 64 1010.1
20260505040004 62 323 5.2 10.4 0.00 0.00 0.00 64 1009.9
20260505035504 62 322 5.2 10.4 0.00 0.00 0.00 64 1009.9
20260505035006 62 338 5.2 13.0 0.00 0.00 0.00 64 1009.9
20260505034504 63 323 6.1 5.2 0.00 0.00 0.00 63 1009.8
20260505034004 63 323 6.1 5.2 0.00 0.00 0.00 63 1009.8
20260505033505 63 323 6.1 5.2 0.00 0.00 0.00 63 1009.8
20260505033004 63 332 6.1 13.0 0.00 0.00 0.00 63 1009.5
20260505032506 63 342 6.1 10.4 0.00 0.00 0.00 63 1009.5
20260505032004 63 345 6.1 12.2 0.00 0.00 0.00 63 1009.5
20260505031505 63 325 6.1 13.0 0.00 0.00 0.00 62 1009.5
20260505031004 63 343 6.1 13.0 0.00 0.00 0.00 62 1009.5
20260505030504 64 341 6.1 11.3 0.00 0.00 0.00 62 1009.5
20260505030005 64 351 6.1 11.3 0.00 0.00 0.00 61 1009.4